Location: Corralito
(10.2667°N, 66.9500°W)
Time: 17:24:47
(UTC+00:00)

Cosmos 2123 Rocket - Pass Details

Date: 23 March 2023
Orbit: 960 x 992 km, 82.9° (Epoch: 09 June)

Event Time Altitude Azimuth Distance (km) Brightness Sun altitude
Rises 23:12:21 0° 169° (S) 3,655 6.9 -9.1°
Reaches altitude 10° 23:14:57 10° 163° (SSE) 2,712 6.1 -9.8°
Maximum altitude 23:20:51 46° 92° (E) 1,289 4.2 -11.2°
Drops below altitude 10° 23:26:47 10° 20° (NNE) 2,733 6.2 -12.7°
Sets 23:29:24 0° 15° (NNE) 3,685 6.9 -13.3°
